Dewpoint
52 52 52 52 51 52 51 51 51 51 51 51 51 51 51 51 52 52 52 53 53 53 53 53 54 53 54 54 53 53 54 51 50 48 47 45 46 52 57 59 58 59 57 49 38 33 29 31 31 30 34 32 32 31 33 33 32 27 22 21 19 17 15 16 15 13 13 10 10 11 11 8 26 54 58 60 61 62 62 63 64 65 66 66 67 68 68 68
51 51 51 51 51 52 51 51 51 51 51 51 51 51 51 51 51 52 52 52 53 53 53 53 53 53 53 53 53 54 52 50 48 47 46 47 57 55 58 60 62 61 57 43 35 33 26 27 28 31 32 28 33 28 32 30 31 28 23 19 19 16 15 15 14 14 11 10 11 11 11 11 23 50 44 57 58 58 60 62 63 64 65 67 67 68 68 67
51 51 51 51 51 51 51 51 51 51 51 51 51 51 52 52 51 51 51 51 51 52 53 53 53 53 53 53 53 54 51 49 45 36 36 58 58 56 56 59 62 58 40 39 37 32 26 25 26 31 31 29 30 29 30 28 30 28 26 18 17 15 13 14 13 12 12 12 11 11 11 10 10 18 45 56 57 59 58 60 62 63 63 65 67 68 67 67
51 51 51 51 51 51 50 51 51 51 51 51 51 51 51 52 52 52 52 52 52 52 52 53 52 52 52 53 53 52 49 47 26 31 43 59 62 59 57 58 62 58 39 39 38 31 28 26 29 30 30 29 29 30 28 28 24 22 27 24 22 17 15 16 14 13 12 12 11 11 12 11 11 10 55 58 55 55 58 61 61 62 64 65 66 67 67 67
50 51 51 51 51 51 51 50 50 51 52 52 51 51 51 51 51 52 52 52 52 52 52 52 52 53 52 53 53 51 47 6 20 36 42 61 62 61 59 59 59 56 41 35 35 28 26 25 28 30 28 26 28 28 27 28 26 19 21 24 23 20 16 17 14 13 12 13 12 12 11 10 11 42 58 56 48 48 55 58 61 64 65 66 66 67 67 67
51 51 51 51 51 51 50 50 50 51 51 52 52 52 51 51 51 51 51 51 51 51 52 52 52 52 52 53 52 50 27 2 20 31 64 61 64 62 60 59 60 53 36 30 28 26 22 23 22 25 27 26 27 26 27 27 26 25 25 21 19 16 14 15 14 13 12 12 11 11 11 11 10 12 47 54 47 47 56 60 63 65 66 66 67 67 66 66
51 51 51 51 51 51 50 51 51 51 51 52 52 52 52 52 51 51 51 51 51 51 50 51 52 52 52 53 49 46 28 16 35 33 55 64 64 61 59 60 61 44 35 29 25 23 22 20 20 21 24 25 25 26 27 28 24 26 24 23 22 19 14 14 12 12 10 10 9 10 12 10 10 8 17 50 45 44 61 64 64 65 66 67 66 66 66 66
51 51 51 51 51 50 50 51 51 51 51 51 51 52 51 51 51 51 51 51 51 51 51 51 51 51 52 49 46 40 35 24 26 31 55 65 62 59 60 55 45 40 35 31 26 21 20 19 20 22 20 23 24 24 26 26 25 20 19 19 18 17 15 13 11 9 9 9 10 11 10 10 9 9 33 43 49 62 64 64 65 65 66 66 66 66 66 66
51 51 51 51 50 50 50 51 51 51 51 51 51 51 51 50 51 51 51 51 51 51 50 50 51 51 52 49 42 18 10 21 29 44 59 59 59 57 51 46 40 37 36 29 26 22 19 18 20 21 19 21 21 22 22 23 20 20 20 20 18 16 14 11 9 7 7 8 11 9 9 9 9 13 8 26 59 64 64 65 65 65 65 65 65 66 66 66
51 51 51 50 50 50 51 52 51 51 51 51 50 50 50 51 51 51 51 51 51 50 50 50 51 51 49 47 33 21 19 15 48 53 54 55 54 51 48 43 39 35 31 28 24 22 19 21 19 23 24 21 22 20 20 20 18 16 15 15 15 13 10 8 6 5 5 9 11 9 7 7 9 8 4 45 62 64 64 64 65 65 64 65 65 66 66 66
50 51 51 50 50 50 50 51 51 51 51 50 50 51 51 51 51 50 51 51 51 51 51 50 51 52 47 47 27 22 24 42 49 47 48 47 48 47 46 39 38 34 29 27 23 22 21 25 27 28 24 21 16 14 17 13 15 13 10 9 8 8 6 6 5 5 6 5 8 8 7 8 8 5 2 43 62 64 63 64 64 64 64 64 65 65 66 63
50 50 50 50 50 50 50 51 51 51 50 51 51 51 51 50 50 51 51 51 51 51 51 50 51 50 48 45 34 22 28 39 45 45 43 40 40 43 43 33 36 32 27 26 26 24 23 26 29 29 24 27 18 16 14 11 13 12 13 10 10 11 9 8 6 6 7 5 10 8 8 6 8 2 3 51 63 63 63 63 64 64 64 65 65 65 65 61
49 50 50 50 50 50 50 50 51 50 50 50 50 50 50 50 51 51 51 51 51 51 51 49 50 50 46 31 33 33 31 32 32 34 35 35 39 38 39 31 32 29 27 24 24 26 26 29 29 27 28 29 24 21 18 15 11 22 15 12 11 12 11 10 8 7 7 7 11 8 7 8 7 8 7 57 62 63 63 63 63 63 64 64 65 65 64 62
49 49 49 49 49 50 50 50 50 50 50 50 50 50 50 51 51 52 52 51 51 52 52 51 51 48 44 30 31 41 41 39 38 39 38 39 37 37 34 27 27 26 25 23 22 26 27 28 28 28 24 24 21 18 12 14 18 11 12 14 14 12 11 9 12 11 7 11 10 7 11 9 9 10 11 52 62 62 62 62 63 63 63 64 64 64 62 62
49 49 49 49 49 50 50 50 50 50 50 50 50 50 50 50 51 52 52 51 51 51 51 51 51 48 40 37 41 43 55 52 45 40 40 38 36 36 35 29 24 24 24 23 22 23 22 24 24 23 21 24 22 19 14 12 16 16 9 10 17 10 11 9 12 11 7 9 10 7 16 8 8 8 10 52 60 61 61 62 62 62 63 63 63 61 62 62
49 49 49 49 49 49 49 50 49 50 50 50 50 50 51 51 51 51 51 51 51 51 50 50 49 48 41 32 32 51 40 40 43 50 46 39 37 35 36 31 28 26 24 22 21 20 24 24 21 21 21 21 15 11 11 10 12 21 12 18 15 16 14 9 10 11 9 9 9 7 7 8 4 6 9 48 58 59 59 60 61 62 62 62 60 60 61 61
49 49 49 49 49 49 49 49 49 49 49 49 49 50 50 50 51 51 51 52 52 51 50 47 49 49 26 28 38 32 29 36 46 47 46 40 37 36 34 31 30 28 24 23 27 23 24 23 25 24 23 18 19 13 11 13 12 14 18 16 23 14 14 11 10 10 9 9 6 6 5 10 9 13 12 44 56 55 58 58 60 61 62 60 59 60 60 60
48 49 49 49 49 49 49 49 49 49 49 49 49 49 48 51 52 52 52 52 50 50 49 50 48 40 31 40 29 28 39 39 39 43 45 42 37 36 34 32 31 30 29 28 28 25 25 25 21 22 27 20 18 15 12 10 15 12 16 15 16 16 15 11 10 9 6 7 8 11 10 9 8 9 10 38 54 54 56 58 60 60 59 58 59 59 60 60
48 48 48 49 48 48 49 49 49 49 49 49 49 49 51 51 49 48 47 48 45 39 34 40 34 22 14 28 36 35 36 37 33 35 35 42 40 36 36 35 31 29 30 27 27 25 23 26 28 18 18 19 18 12 11 13 16 14 17 18 20 15 12 11 11 9 8 9 7 7 6 6 9 9 10 21 49 53 54 57 59 59 58 58 58 59 60 60
48 48 48 48 48 48 49 49 49 49 49 48 46 46 38 29 26 31 47 47 45 41 37 38 39 30 34 31 27 30 32 34 33 34 36 37 37 36 35 34 30 28 25 28 27 26 22 20 18 17 19 23 27 21 17 14 15 15 16 15 12 12 12 13 12 11 11 10 10 10 10 9 8 8 11 15 40 51 54 56 57 58 57 58 59 59 59 59
48 48 48 48 48 48 49 49 49 49 49 47 46 35 26 25 21 19 19 35 43 43 41 37 41 37 32 31 30 30 31 33 33 32 34 35 27 34 28 27 25 27 27 26 27 33 27 20 19 21 26 28 25 28 28 24 25 17 15 14 12 14 13 14 14 16 16 21 21 19 11 10 11 13 15 23 38 51 53 55 57 57 57 58 58 59 59 59
47 48 48 48 48 48 49 49 49 49 49 47 45 37 34 27 23 21 23 22 23 33 41 40 38 37 37 36 34 33 33 31 29 29 32 29 22 24 21 23 22 21 27 25 23 20 18 18 21 25 25 28 29 28 30 26 24 25 18 17 17 16 16 17 20 19 20 23 18 18 17 16 18 26 37 18 36 49 53 55 57 57 57 58 58 59 59 58
47 47 48 48 48 48 48 49 49 49 44 44 42 41 37 35 32 32 32 28 28 29 30 35 36 36 32 32 33 35 32 31 27 28 29 29 22 24 21 19 21 22 28 27 23 22 19 17 20 19 27 26 26 27 26 28 29 23 22 20 17 17 16 14 25 25 25 22 21 19 18 19 27 42 46 48 42 47 52 55 57 58 57 58 58 59 58 58
47 47 48 48 48 48 48 49 49 45 42 43 41 38 37 36 35 35 33 30 29 29 27 28 30 30 29 24 32 34 31 30 30 26 31 26 21 21 21 20 21 22 21 20 21 20 19 19 20 23 25 24 23 25 25 23 19 28 26 22 18 17 18 16 19 28 29 27 29 19 20 17 25 27 42 49 49 49 53 56 57 58 58 58 58 57 58 58
47 47 47 48 48 48 48 49 43 44 43 42 41 41 41 40 39 37 32 31 29 29 31 27 28 30 26 35 37 34 34 32 31 28 29 25 21 21 21 25 22 21 20 18 18 18 17 19 27 19 22 23 23 20 24 24 20 22 28 24 22 21 20 21 26 21 19 17 28 16 14 13 22 39 44 46 50 52 54 55 55 56 56 56 56 56 56 57
47 47 47 48 47 47 48 41 41 44 42 39 35 35 36 38 41 41 34 29 22 25 30 24 28 25 28 29 34 32 32 29 31 31 27 23 26 21 24 22 24 22 20 16 16 20 17 26 21 20 23 23 20 18 21 23 18 18 20 27 23 21 22 23 23 19 14 11 20 27 16 11 23 34 43 48 50 51 53 54 55 55 55 55 55 56 56 56
47 47 47 47 47 48 42 35 44 43 33 29 31 38 37 39 44 41 28 20 15 27 28 27 21 20 25 26 29 21 11 9 30 31 29 28 22 26 19 21 23 21 21 22 17 15 15 16 19 22 23 22 22 19 23 21 19 18 28 28 24 23 24 24 21 18 18 27 28 29 21 16 20 29 45 49 50 51 52 53 53 54 54 54 55 55 55 56
47 47 47 47 47 47 44 45 44 41 36 31 41 40 39 40 42 40 26 9 0 18 34 23 21 24 22 27 26 16 14 20 21 26 29 25 24 24 19 19 19 19 14 18 17 23 21 19 20 21 23 19 16 16 24 22 19 20 27 25 22 22 24 21 19 20 23 17 12 19 29 17 17 28 47 49 47 49 50 52 53 53 54 54 54 55 55 55
47 47 47 47 47 47 47 45 44 42 41 42 42 41 40 42 40 33 24 12 16 24 23 25 26 23 20 24 22 17 17 21 18 23 27 24 23 23 19 21 20 20 14 17 18 21 19 14 15 16 17 16 18 17 20 22 19 20 22 26 25 23 22 21 17 15 18 12 11 17 26 17 16 29 39 43 47 48 50 51 52 53 53 53 53 53 53 55
47 47 47 47 47 45 43 46 45 45 44 44 43 42 42 37 28 21 14 7 26 16 22 26 20 9 18 20 19 18 15 17 22 24 24 22 23 25 24 23 18 18 18 19 14 16 18 34 26 16 15 14 15 16 18 21 18 26 23 19 17 21 24 25 22 23 19 10 14 19 30 18 16 27 35 41 44 48 50 50 50 50 51 52 52 52 53 54
47 47 47 48 45 45 43 38 40 43 44 44 43 42 30 26 23 15 11 17 23 22 18 13 11 8 7 13 14 15 15 15 20 22 21 23 23 23 23 21 22 23 22 21 19 18 20 18 16 18 22 17 14 13 19 20 20 20 20 17 15 17 23 17 23 21 11 10 16 21 27 22 14 22 32 37 40 45 49 50 50 50 50 50 51 52 53 54
47 48 48 47 47 46 41 32 34 42 43 44 45 30 17 8 15 12 12 23 17 19 13 11 9 8 6 6 15 16 14 16 21 21 20 21 23 21 22 21 22 17 17 18 16 26 20 19 17 15 33 16 16 16 17 17 18 18 21 18 16 15 14 10 17 7 7 12 15 25 25 17 27 27 37 44 45 44 49 49 50 50 50 50 51 52 53 54
48 48 49 48 48 46 46 44 43 44 45 45 38 27 15 11 2 15 15 18 19 16 16 12 9 9 7 6 13 18 15 14 20 19 21 21 21 21 22 21 22 21 16 24 19 18 18 21 20 16 15 21 16 15 15 12 14 13 13 17 14 8 8 6 14 13 14 16 20 24 27 23 27 34 41 44 45 46 49 50 50 51 51 52 52 53 54 55
48 48 46 47 47 47 47 47 47 46 45 43 29 21 6 -5 -1 36 18 19 11 15 12 12 10 8 7 8 7 22 16 19 20 21 21 22 21 22 22 22 23 23 23 25 17 17 11 11 15 16 14 20 15 14 14 20 15 10 13 12 15 16 14 7 15 8 11 16 20 26 18 17 28 34 42 46 47 49 51 51 51 51 52 51 52 53 54 55
48 47 46 45 47 47 48 48 46 47 45 31 23 17 4 7 15 18 21 22 17 14 13 13 7 7 8 8 9 19 25 26 32 18 19 21 22 24 22 21 23 24 25 18 23 15 12 15 18 18 12 17 14 16 15 17 16 21 20 16 14 14 22 10 21 18 19 16 15 23 22 27 33 41 45 47 49 50 50 51 51 52 53 53 54 54 55 56
46 43 45 44 47 48 47 47 46 45 36 20 19 12 4 14 0 18 14 18 14 16 15 9 8 6 12 12 17 5 37 32 38 30 29 22 23 22 23 22 21 20 20 21 23 15 14 15 20 22 17 14 13 18 16 12 14 22 13 15 18 23 21 20 19 24 19 20 12 17 32 35 37 39 43 48 48 49 51 52 53 54 54 54 54 54 55 57
44 46 44 46 50 49 47 47 46 45 31 17 15 2 17 23 18 20 27 18 17 17 12 9 12 7 14 12 9 8 19 32 36 28 26 27 22 29 28 29 31 21 19 21 21 19 15 15 21 16 13 14 18 15 16 18 18 20 16 19 26 28 28 22 14 17 15 11 14 26 29 33 28 28 39 45 46 48 49 51 52 53 54 53 53 55 56 57
44 44 48 49 47 47 47 46 46 43 35 24 17 34 29 25 27 20 22 21 19 19 15 14 16 14 16 8 7 8 9 26 36 32 27 32 24 33 36 33 33 30 20 22 18 26 19 15 17 19 15 15 27 17 20 22 22 18 22 23 19 17 15 25 20 11 10 10 12 21 28 29 27 31 37 41 43 45 46 48 48 49 50 51 52 53 54 55
44 44 38 42 47 46 46 47 45 39 32 27 21 22 31 30 30 26 25 26 22 20 18 14 11 15 9 11 10 6 8 16 27 29 24 28 23 32 36 32 31 32 33 18 18 26 28 16 20 22 23 22 27 20 17 25 24 25 21 24 30 26 25 16 17 22 18 10 11 14 26 23 32 34 40 42 42 45 46 47 47 49 50 50 50 51 52 53
44 37 37 43 47 46 48 46 41 35 30 23 25 26 28 29 29 30 30 27 24 20 18 16 10 15 16 12 9 8 8 11 26 32 23 33 28 35 35 39 33 34 34 34 27 31 21 23 15 23 24 21 18 28 23 23 19 23 20 23 22 26 32 24 26 19 17 14 12 17 21 24 31 42 44 45 45 46 47 47 47 48 50 50 50 51 51 52
41 36 36 44 47 47 45 41 36 32 29 30 31 31 31 30 31 31 31 31 27 24 23 23 25 22 19 16 10 7 14 13 30 29 29 34 31 23 34 34 33 33 34 33 30 31 25 21 18 24 23 23 24 30 27 26 26 28 27 25 22 21 20 15 17 24 24 20 15 16 13 22 33 47 47 46 47 47 48 47 48 49 50 51 51 52 52 53
37 32 35 44 47 44 40 34 32 34 31 31 30 33 31 34 32 30 30 29 28 26 24 24 22 22 21 15 9 16 18 18 30 31 31 30 35 31 31 36 34 34 35 31 30 34 29 27 23 18 22 23 27 29 30 31 31 31 31 30 30 27 23 19 13 18 23 27 25 23 26 25 41 47 47 47 48 48 48 48 48 49 49 50 51 52 52 53
36 34 40 45 48 41 33 26 32 30 29 33 36 33 32 31 32 30 29 29 28 26 25 22 21 21 22 18 22 17 16 23 27 26 29 32 32 34 35 36 36 33 36 37 30 35 49 23 20 23 26 28 28 28 27 30 31 28 31 34 33 27 29 23 24 24 22 22 21 22 27 32 44 48 48 48 48 47 47 48 48 49 49 50 51 52 52 53
36 37 34 40 43 37 31 24 26 26 30 35 35 33 33 32 32 30 29 30 28 27 25 24 24 20 19 19 21 21 24 18 23 25 26 31 30 31 33 33 32 31 29 34 32 40 29 31 26 20 18 22 25 25 24 27 32 30 28 31 34 33 34 32 29 27 23 24 24 23 23 33 43 48 47 48 48 47 48 48 49 49 49 50 50 51 51 52
36 38 40 40 40 38 31 31 29 26 29 32 32 31 32 33 33 32 32 33 32 28 27 27 25 26 29 28 29 31 31 20 23 28 28 32 30 31 34 39 35 34 40 43 47 34 30 32 29 23 17 16 14 14 15 19 27 31 34 34 34 29 29 25 18 21 18 22 25 26 29 34 45 46 46 47 47 47 48 48 49 49 49 49 49 50 50 51
33 26 29 32 35 36 35 37 35 32 28 31 24 29 33 30 32 32 32 32 30 29 27 28 28 28 27 30 28 26 26 30 28 29 28 29 30 30 33 35 41 43 47 48 45 38 30 32 31 29 25 22 22 23 27 31 29 26 29 34 34 35 32 27 24 21 19 23 27 31 35 38 41 43 44 46 46 46 47 48 48 47 47 47 47 47 47 47
35 26 25 26 31 30 31 33 33 34 28 31 26 31 28 31 31 30 32 29 29 26 31 28 26 25 25 28 28 27 27 30 27 27 27 29 28 31 32 34 36 44 46 43 44 33 32 30 34 32 33 34 34 32 34 32 29 31 32 32 35 35 34 31 23 22 27 28 24 34 39 39 40 43 44 45 46 46 46 45 45 45 45 45 45 45 46 44
25 26 32 32 26 24 27 27 33 32 36 35 29 33 30 31 30 27 31 30 29 26 28 26 23 26 23 26 28 23 24 29 28 25 29 28 30 28 30 33 35 41 43 39 41 35 31 29 32 33 35 37 38 36 35 33 33 32 32 32 33 35 33 31 32 33 28 22 27 37 40 39 41 43 44 43 42 41 41 41 42 43 44 44 43 43 41 40
32 31 33 35 26 29 29 30 35 33 31 36 33 31 31 32 30 31 29 30 28 28 24 19 22 23 25 23 27 22 23 23 21 31 28 27 28 31 28 31 32 39 37 40 39 37 33 30 34 34 32 34 37 37 36 33 32 32 31 32 32 33 35 36 35 34 33 33 38 40 40 39 41 41 41 41 41 40 41 41 41 40 41 41 41 40 39 39
30 29 28 35 32 30 31 31 30 28 25 33 26 26 31 32 31 32 35 29 24 27 26 27 22 23 27 23 26 21 21 25 22 20 32 29 28 31 25 30 30 34 41 36 39 39 33 29 35 32 30 32 35 37 36 35 33 31 31 32 31 31 33 37 39 39 40 40 39 39 38 36 41 42 41 41 41 41 40 40 40 40 41 41 40 40 40 39
33 36 35 31 27 30 33 29 27 25 22 25 25 27 31 31 34 37 35 31 27 26 28 23 24 26 27 24 25 22 25 25 25 26 29 27 27 34 30 28 29 27 36 36 37 37 35 28 34 30 29 29 35 35 35 35 34 32 31 31 31 31 27 29 33 35 37 37 37 36 35 34 40 42 42 42 42 40 39 39 39 40 41 41 40 40 40 40
38 38 37 30 25 28 26 28 26 26 23 23 27 28 26 27 27 30 26 25 26 26 28 28 26 24 24 24 21 21 22 23 22 21 21 24 27 33 26 23 22 24 32 35 38 34 35 31 29 30 30 30 36 35 33 32 31 30 30 31 31 32 32 32 33 35 36 39 36 35 34 39 40 41 39 39 39 39 39 40 40 40 41 41 41 42 42 41